Location: Sungai Kamana Besar
(2.6333°N, 113.4333°E)
Time: 05:04:02
(UTC+00:00)

GPS 2-15 Rocket1 - Pass Details

Date: 29 May 2022
Orbit: 622 x 674 km, 19.8° (Epoch: 26 June)

Event Time Altitude Azimuth Distance (km) Brightness Sun altitude
Exits shadow 20:24:45 32° 347° (NNW) 1,068 4.3 -26.3°
Maximum altitude 20:25:52 37° 19° (NNE) 970 4.3 -26.1°
Drops below altitude 10° 20:30:14 10° 87° (E) 2,008 6.6 -25.1°
Sets 20:32:45 0° 95° (E) 2,927 7.5 -24.5°
